Location: Newark
(25.4297°S, 49.2719°W)
Time: 02:31:30
(UTC+00:00)

Tiros 1 - Pass Details

Date: 21 November 2019
Orbit: 630 x 664 km, 48.4° (Epoch: 07 December)

Event Time Altitude Azimuth Distance (km) Brightness Sun altitude
Exits shadow 05:32:25 11° 208° (SSW) 2,064 9.9 -31.9°
Maximum altitude 05:32:33 11° 206° (SSW) 2,064 9.9 -31.9°
Drops below altitude 10° 05:33:31 10° 194° (SSW) 2,100 10.1 -31.8°
Sets 05:38:09 0° 155° (SSE) 3,016 11.6 -31.1°
